Location: Ostrava
(49.8330°N, 18.2830°E)
Time: 03:37:47
(UTC+01:00)

ISS - Visible Passes

Search period start: 15 December 2017 00:00
Search period end: 25 December 2017 00:00
Orbit: 403 x 406 km, 51.6° (Epoch: 15 December)

Date Brightness Start Highest point End Pass type
(mag) Time Alt. Az. Time Alt. Az. Time Alt. Az.
15 Dec -3.2 16:20:33 10° WNW 16:23:48 61° SSW 16:27:03 10° ESE visible
15 Dec -0.8 17:57:58 10° WSW 17:59:47 14° SW 18:01:35 10° S visible
16 Dec -1.2 17:05:07 10° W 17:07:46 22° SW 17:10:23 10° SSE visible
18 Dec -0.3 16:58:07 10° WSW 16:59:23 12° SW 17:00:39 10° SSW visible
